Voltar ao catálogo

CZ-4 DEB

AtivoSSO
NORAD 20793·DEBRIS·🇨🇳 China

Lançado Sep 3, 1990 de Taiyuan Satellite Launch Center

Loading…

Próximas Passagens (próximas 24 horas)

TLE

AtualizadoSource: Space-Track

Época: Sep 14, 2026, 22:24 UTC

1 20793U 90081F   26257.93360815  .00000561  00000-0  27799-3 0  9995
2 20793  98.7826 245.3414 0020690  78.2352 282.1145 14.21080731856234

Acompanhe CZ-4 DEB em tempo real com AllMySat

Download on the App Store